Regional Weather Roundup
Issued by NWS Little Rock, AR

Home | Current Version | Previous Version | Text Only | Print | Product List | Glossary On
Versions: 1 2 3 4 5 6 7 8 9 10 11 12 13 14 15 16 17 18 19 20 21 22 23 24 25 26 27 28 29 30 31 32 33 34 35 36 37 38 39 40 41 42 43 44 45 46 47 48 49 50
000
ASUS44 KLZK 141105
RWRLZK

WEATHER ROUNDUP FOR ARKANSAS
NATIONAL WEATHER SERVICE LITTLE ROCK AR
600 AM CDT TUE AUG 14 2018

NOTE: "FAIR" INDICATES FEW OR NO CLOUDS BELOW 12,000 FEET WITH NO
SIGNIFICANT WEATHER AND/OR OBSTRUCTIONS TO VISIBILITY.

ARZ001-003-010-029-141200-
NORTHWEST ARKANSAS

CITY           SKY/WX    TMP DP  RH WIND       PRES   REMARKS
FAYETTEVILLE   LGT RAIN  69  68  96 S5        29.99S
FORT SMITH     LGT RAIN  71  70  96 N7        29.98S
HARRISON       RAIN      69  69 100 S9        30.01F FOG
BENTONVILLE    RAIN      69  68  96 S8G16     30.01R
ROGERS         RAIN      69  68  96 S12       30.00R
SILOAM SPGS    RAIN      69  68  96 S8        29.98S
HIGHFILL       RAIN      69  67  93 S10       29.99S FOG
SPRINGDALE     RAIN      70  70 100 S7G13     30.01  FOG
$$

ARZ004-005-016-141200-
NORTH CENTRAL ARKANSAS

CITY           SKY/WX    TMP DP  RH WIND       PRES   REMARKS
BATESVILLE     LGT RAIN  72  69  90 W3        30.02F
FLIPPIN        RAIN      71  70  96 MISG      30.01S
MTN HOME       LGT RAIN  70  70 100 S6        30.00F
$$

ARZ040-041-141200-
WEST CENTRAL ARKANSAS

CITY           SKY/WX    TMP DP  RH WIND       PRES   REMARKS
MENA           CLOUDY   N/A N/A N/A CALM      30.01S
MOUNT IDA      MOCLDY    72  72 100 CALM      29.98F
$$

ARZ009-017-025-026-028-141200-
NORTHEAST ARKANSAS

CITY           SKY/WX    TMP DP  RH WIND       PRES   REMARKS
CORNING        PTSUNNY   75  75 100 CALM      30.01F
JONESBORO      MOCLDY    75  75 100 SW3       30.01F
NEWPORT        MOCLDY    73  72  96 CALM      30.01F
WALNUT RIDGE     N/A     75  73  93 CALM      30.00F
BLYTHEVILLE    FAIR      73  70  90 SW5       30.02S
$$

ARZ022-023-033-042-044-141200-
CENTRAL ARKANSAS

CITY           SKY/WX    TMP DP  RH WIND       PRES   REMARKS
LITTLE ROCK    CLOUDY    72  71  97 CALM      30.01S
N LITTLE ROCK    N/A     70  69  99 CALM      30.02F
JACKSONVILLE   CLOUDY    73  73 100 CALM      30.00F
CONWAY         CLOUDY    72  72 100 CALM      30.01S
SEARCY         FAIR      73  73 100 CALM      30.01F
HOT SPRINGS    CLOUDY    73  72  96 CALM      30.01R
RUSSELLVILLE   RAIN      71  71 100 CALM      30.00F
CLINTON        RAIN      70  70 100 CALM      30.03S
$$

ARZ036-141200-
EAST ARKANSAS

CITY           SKY/WX    TMP DP  RH WIND       PRES   REMARKS
WEST MEMPHIS   FAIR      73  73 100 CALM      30.01R FOG
$$

ARZ050-053-066-070-073-141200-
SOUTHWEST ARKANSAS

CITY           SKY/WX    TMP DP  RH WIND       PRES   REMARKS
ARKADELPHIA    FAIR      74  73  97 NE3       30.00S
CAMDEN         FAIR      72  70  94 CALM      29.99R FOG
TEXARKANA      CLOUDY    73  70  90 S6        29.98R
EL DORADO      FAIR      71  71 100 CALM      30.00R
DE QUEEN       PTCLDY    74  74 100 CALM      29.96R FOG
$$

ARZ056-057-069-141200-
SOUTHEAST ARKANSAS

CITY           SKY/WX    TMP DP  RH WIND       PRES   REMARKS
PINE BLUFF     FAIR      73  71  93 CALM      30.00F
MONTICELLO     FAIR      74  73  97 S6        30.00F

$$






USA.gov is the U.S. government's official web portal to all federal, state and local government web resources and services.